Year,Month,Day,Hour,Minute,Value (Times are PST for temperature in C)
2010,04,12,00,00,7.20
2010,04,12,00,01,7.20
2010,04,12,00,02,7.20
2010,04,12,00,03,7.20
2010,04,12,00,04,7.10
2010,04,12,00,05,7.00
2010,04,12,00,06,7.00
2010,04,12,00,07,7.20
2010,04,12,00,08,7.30
2010,04,12,00,09,7.60
2010,04,12,00,10,7.80
2010,04,12,00,11,8.10
2010,04,12,00,12,8.00
2010,04,12,00,13,8.00
2010,04,12,00,14,7.80
2010,04,12,00,15,7.70
2010,04,12,00,16,7.60
2010,04,12,00,17,7.50
2010,04,12,00,18,7.50
2010,04,12,00,19,7.40
2010,04,12,00,20,7.30
2010,04,12,00,21,7.30
2010,04,12,00,22,7.20
2010,04,12,00,23,7.20
2010,04,12,00,24,7.10
2010,04,12,00,25,7.00
2010,04,12,00,26,6.90
2010,04,12,00,27,6.80
2010,04,12,00,28,6.70
2010,04,12,00,29,6.70
2010,04,12,00,30,6.60
2010,04,12,00,31,6.60
2010,04,12,00,32,6.60
2010,04,12,00,33,6.50
2010,04,12,00,34,6.50
2010,04,12,00,35,6.50
2010,04,12,00,36,6.60
2010,04,12,00,37,6.60
2010,04,12,00,38,6.60
2010,04,12,00,39,6.60
2010,04,12,00,40,6.60
2010,04,12,00,41,6.70
2010,04,12,00,42,6.80
2010,04,12,00,43,6.80
2010,04,12,00,44,6.80
2010,04,12,00,45,6.80
2010,04,12,00,46,6.80
2010,04,12,00,47,7.00
2010,04,12,00,48,7.10
2010,04,12,00,49,7.20
2010,04,12,00,50,7.20
2010,04,12,00,51,7.30
2010,04,12,00,52,7.20
2010,04,12,00,53,7.20
2010,04,12,00,54,7.10
2010,04,12,00,55,7.10
2010,04,12,00,56,7.30
2010,04,12,00,57,7.50
2010,04,12,00,58,7.60
2010,04,12,00,59,7.70
2010,04,12,01,00,7.60
2010,04,12,01,01,7.60
2010,04,12,01,02,7.50
2010,04,12,01,03,7.40
2010,04,12,01,04,7.30
2010,04,12,01,05,7.20
2010,04,12,01,06,7.00
2010,04,12,01,07,6.90
2010,04,12,01,08,6.80
2010,04,12,01,09,6.70
2010,04,12,01,10,6.70
2010,04,12,01,11,6.60
2010,04,12,01,12,6.50
2010,04,12,01,13,6.40
2010,04,12,01,14,6.40
2010,04,12,01,15,6.30
2010,04,12,01,16,6.30
2010,04,12,01,17,6.20
2010,04,12,01,18,6.20
2010,04,12,01,19,6.20
2010,04,12,01,20,6.20
2010,04,12,01,21,6.20
2010,04,12,01,22,6.10
2010,04,12,01,23,6.10
2010,04,12,01,24,6.10
2010,04,12,01,25,6.00
2010,04,12,01,26,6.00
2010,04,12,01,27,5.90
2010,04,12,01,28,5.90
2010,04,12,01,29,5.80
2010,04,12,01,30,5.80
2010,04,12,01,31,5.70
2010,04,12,01,32,5.70
2010,04,12,01,33,5.60
2010,04,12,01,34,5.70
2010,04,12,01,35,5.70
2010,04,12,01,36,5.70
2010,04,12,01,37,5.70
2010,04,12,01,38,5.70
2010,04,12,01,39,5.80
2010,04,12,01,40,5.90
2010,04,12,01,41,6.00
2010,04,12,01,42,6.00
2010,04,12,01,43,6.10
2010,04,12,01,44,6.10
2010,04,12,01,45,6.10
2010,04,12,01,46,6.30
2010,04,12,01,47,6.40
2010,04,12,01,48,6.40
2010,04,12,01,49,6.50
2010,04,12,01,50,6.60
2010,04,12,01,51,6.70
2010,04,12,01,52,6.70
2010,04,12,01,53,6.70
2010,04,12,01,54,6.70
2010,04,12,01,55,6.70
2010,04,12,01,56,6.70
2010,04,12,01,57,6.60
2010,04,12,01,58,6.60
2010,04,12,01,59,6.50
2010,04,12,02,00,6.50
2010,04,12,02,01,6.50
2010,04,12,02,02,6.50
2010,04,12,02,03,6.70
2010,04,12,02,04,6.80
2010,04,12,02,05,6.90
2010,04,12,02,06,6.90
2010,04,12,02,07,6.90
2010,04,12,02,08,6.90
2010,04,12,02,09,6.90
2010,04,12,02,10,6.90
2010,04,12,02,11,6.90
2010,04,12,02,12,6.90
2010,04,12,02,13,6.90
2010,04,12,02,14,6.90
2010,04,12,02,15,6.90
2010,04,12,02,16,6.90
2010,04,12,02,17,6.80
2010,04,12,02,18,6.80
2010,04,12,02,19,6.70
2010,04,12,02,20,6.70
2010,04,12,02,21,6.70
2010,04,12,02,22,6.70
2010,04,12,02,23,6.70
2010,04,12,02,24,6.70
2010,04,12,02,25,6.70
2010,04,12,02,26,6.80
2010,04,12,02,27,6.80
2010,04,12,02,28,6.80
2010,04,12,02,29,6.80
2010,04,12,02,30,6.80
2010,04,12,02,31,6.80
2010,04,12,02,32,6.80
2010,04,12,02,33,6.80
2010,04,12,02,34,6.80
2010,04,12,02,35,6.80
2010,04,12,02,36,6.70
2010,04,12,02,37,6.70
2010,04,12,02,38,6.70
2010,04,12,02,39,6.70
2010,04,12,02,40,6.70
2010,04,12,02,41,6.60
2010,04,12,02,42,6.60
2010,04,12,02,43,6.60
2010,04,12,02,44,6.60
2010,04,12,02,45,6.60
2010,04,12,02,46,6.60
2010,04,12,02,47,6.50
2010,04,12,02,48,6.50
2010,04,12,02,49,6.50
2010,04,12,02,50,6.50
2010,04,12,02,51,6.50
2010,04,12,02,52,6.50
2010,04,12,02,53,6.40
2010,04,12,02,54,6.40
2010,04,12,02,55,6.40
2010,04,12,02,56,6.40
2010,04,12,02,57,6.40
2010,04,12,02,58,6.40
2010,04,12,02,59,6.40
2010,04,12,03,00,6.40
2010,04,12,03,01,6.40
2010,04,12,03,02,6.40
2010,04,12,03,03,6.40
2010,04,12,03,04,6.40
2010,04,12,03,05,6.40
2010,04,12,03,06,6.40
2010,04,12,03,07,6.30
2010,04,12,03,08,6.30
2010,04,12,03,09,6.40
2010,04,12,03,10,6.40
2010,04,12,03,11,6.40
2010,04,12,03,12,6.30
2010,04,12,03,13,6.30
2010,04,12,03,14,6.30
2010,04,12,03,15,6.30
2010,04,12,03,16,6.30
2010,04,12,03,17,6.30
2010,04,12,03,18,6.30
2010,04,12,03,19,6.20
2010,04,12,03,20,6.20
2010,04,12,03,21,6.20
2010,04,12,03,22,6.20
2010,04,12,03,23,6.20
2010,04,12,03,24,6.20
2010,04,12,03,25,6.10
2010,04,12,03,26,6.00
2010,04,12,03,27,5.90
2010,04,12,03,28,5.90
2010,04,12,03,29,5.80
2010,04,12,03,30,5.70
2010,04,12,03,31,5.60
2010,04,12,03,32,5.60
2010,04,12,03,33,5.60
2010,04,12,03,34,5.60
2010,04,12,03,35,5.70
2010,04,12,03,36,5.80
2010,04,12,03,37,5.80
2010,04,12,03,38,5.80
2010,04,12,03,39,5.80
2010,04,12,03,40,5.80
2010,04,12,03,41,5.80
2010,04,12,03,42,5.80
2010,04,12,03,43,5.80
2010,04,12,03,44,5.70
2010,04,12,03,45,5.70
2010,04,12,03,46,5.70
2010,04,12,03,47,5.70
2010,04,12,03,48,5.70
2010,04,12,03,49,5.70
2010,04,12,03,50,5.70
2010,04,12,03,51,5.70
2010,04,12,03,52,5.70
2010,04,12,03,53,5.60
2010,04,12,03,54,5.60
2010,04,12,03,55,5.70
2010,04,12,03,56,5.70
2010,04,12,03,57,5.70
2010,04,12,03,58,5.70
2010,04,12,03,59,5.70
2010,04,12,04,00,5.70
2010,04,12,04,01,5.70
2010,04,12,04,02,5.70
2010,04,12,04,03,5.70
2010,04,12,04,04,5.60
2010,04,12,04,05,5.60
2010,04,12,04,06,5.60
2010,04,12,04,07,5.60
2010,04,12,04,08,5.60
2010,04,12,04,09,5.60
2010,04,12,04,10,5.60
2010,04,12,04,11,5.60
2010,04,12,04,12,5.60
2010,04,12,04,13,5.60
2010,04,12,04,14,5.60
2010,04,12,04,15,5.60
2010,04,12,04,16,5.60
2010,04,12,04,17,5.60
2010,04,12,04,18,5.60
2010,04,12,04,19,5.60
2010,04,12,04,20,5.50
2010,04,12,04,21,5.50
2010,04,12,04,22,5.40
2010,04,12,04,23,5.40
2010,04,12,04,24,5.40
2010,04,12,04,25,5.40
2010,04,12,04,26,5.40
2010,04,12,04,27,5.40
2010,04,12,04,28,5.40
2010,04,12,04,29,5.40
2010,04,12,04,30,5.40
2010,04,12,04,31,5.30
2010,04,12,04,32,5.30
2010,04,12,04,33,5.20
2010,04,12,04,34,5.20
2010,04,12,04,35,5.20
2010,04,12,04,36,5.20
2010,04,12,04,37,5.10
2010,04,12,04,38,5.10
2010,04,12,04,39,5.10
2010,04,12,04,40,5.10
2010,04,12,04,41,5.10
2010,04,12,04,42,5.10
2010,04,12,04,43,5.10
2010,04,12,04,44,5.00
2010,04,12,04,45,5.00
2010,04,12,04,46,5.00
2010,04,12,04,47,5.10
2010,04,12,04,48,5.10
2010,04,12,04,49,5.10
2010,04,12,04,50,5.10
2010,04,12,04,51,5.10
2010,04,12,04,52,5.10
2010,04,12,04,53,5.10
2010,04,12,04,54,5.10
2010,04,12,04,55,5.10
2010,04,12,04,56,5.10
2010,04,12,04,57,5.10
2010,04,12,04,58,5.20
2010,04,12,04,59,5.20
2010,04,12,05,00,5.30
2010,04,12,05,01,5.30
2010,04,12,05,02,5.30
2010,04,12,05,03,5.30
2010,04,12,05,04,5.30
2010,04,12,05,05,5.30
2010,04,12,05,06,5.30
2010,04,12,05,07,5.30
2010,04,12,05,08,5.30
2010,04,12,05,09,5.30
2010,04,12,05,10,5.30
2010,04,12,05,11,5.30
2010,04,12,05,12,5.40
2010,04,12,05,13,5.40
2010,04,12,05,14,5.50
2010,04,12,05,15,5.60
2010,04,12,05,16,5.80
2010,04,12,05,17,5.80
2010,04,12,05,18,5.90
2010,04,12,05,19,5.90
2010,04,12,05,20,5.90
2010,04,12,05,21,5.90
2010,04,12,05,22,5.90
2010,04,12,05,23,5.90
2010,04,12,05,24,5.90
2010,04,12,05,25,6.00
2010,04,12,05,26,6.10
2010,04,12,05,27,6.10
2010,04,12,05,28,6.10
2010,04,12,05,29,6.20
2010,04,12,05,30,6.20
2010,04,12,05,31,6.20
2010,04,12,05,32,6.20
2010,04,12,05,33,6.20
2010,04,12,05,34,6.10
2010,04,12,05,35,6.10
2010,04,12,05,36,6.10
2010,04,12,05,37,6.10
2010,04,12,05,38,6.00
2010,04,12,05,39,6.00
2010,04,12,05,40,6.00
2010,04,12,05,41,6.00
2010,04,12,05,42,6.00
2010,04,12,05,43,6.10
2010,04,12,05,44,6.10
2010,04,12,05,45,6.10
2010,04,12,05,46,6.10
2010,04,12,05,47,6.10
2010,04,12,05,48,6.10
2010,04,12,05,49,6.10
2010,04,12,05,50,6.10
2010,04,12,05,51,6.10
2010,04,12,05,52,6.10
2010,04,12,05,53,6.10
2010,04,12,05,54,6.10
2010,04,12,05,55,6.10
2010,04,12,05,56,6.00
2010,04,12,05,57,6.00
2010,04,12,05,58,6.00
2010,04,12,05,59,6.00
2010,04,12,06,00,6.00
2010,04,12,06,01,6.00
2010,04,12,06,02,6.00
2010,04,12,06,03,6.00
2010,04,12,06,04,6.00
2010,04,12,06,05,6.10
2010,04,12,06,06,6.10
2010,04,12,06,07,6.10
2010,04,12,06,08,6.10
2010,04,12,06,09,6.00
2010,04,12,06,10,6.00
2010,04,12,06,11,5.90
2010,04,12,06,12,5.90
2010,04,12,06,13,5.90
2010,04,12,06,14,5.90
2010,04,12,06,15,6.00
2010,04,12,06,16,6.00
2010,04,12,06,17,6.10
2010,04,12,06,18,6.10
2010,04,12,06,19,6.10
2010,04,12,06,20,6.10
2010,04,12,06,21,6.10
2010,04,12,06,22,6.20
2010,04,12,06,23,6.40
2010,04,12,06,24,6.50
2010,04,12,06,25,6.60
2010,04,12,06,26,6.60
2010,04,12,06,27,6.60
2010,04,12,06,28,6.60
2010,04,12,06,29,6.60
2010,04,12,06,30,6.60
2010,04,12,06,31,6.60
2010,04,12,06,32,6.50
2010,04,12,06,33,6.60
2010,04,12,06,34,6.60
2010,04,12,06,35,6.60
2010,04,12,06,36,6.60
2010,04,12,06,37,6.60
2010,04,12,06,38,6.60
2010,04,12,06,39,6.60
2010,04,12,06,40,6.60
2010,04,12,06,41,6.60
2010,04,12,06,42,6.60
2010,04,12,06,43,6.60
2010,04,12,06,44,6.60
2010,04,12,06,45,6.80
2010,04,12,06,46,6.80
2010,04,12,06,47,6.90
2010,04,12,06,48,6.90
2010,04,12,06,49,6.90
2010,04,12,06,50,6.90
2010,04,12,06,51,7.00
2010,04,12,06,52,7.10
2010,04,12,06,53,7.20
2010,04,12,06,54,7.20
2010,04,12,06,55,7.30
2010,04,12,06,56,7.40
2010,04,12,06,57,7.40
2010,04,12,06,58,7.30
2010,04,12,06,59,7.30
2010,04,12,07,00,7.20
2010,04,12,07,01,7.20
2010,04,12,07,02,7.10
2010,04,12,07,03,6.90
2010,04,12,07,04,6.90
2010,04,12,07,05,6.80
2010,04,12,07,06,6.80
2010,04,12,07,07,6.80
2010,04,12,07,08,6.90
2010,04,12,07,09,6.90
2010,04,12,07,10,7.00
2010,04,12,07,11,7.20
2010,04,12,07,12,7.30
2010,04,12,07,13,7.30
2010,04,12,07,14,7.30
2010,04,12,07,15,7.40
2010,04,12,07,16,7.40
2010,04,12,07,17,7.40
2010,04,12,07,18,7.50
2010,04,12,07,19,7.50
2010,04,12,07,20,7.60
2010,04,12,07,21,7.60
2010,04,12,07,22,7.70
2010,04,12,07,23,7.70
2010,04,12,07,24,7.80
2010,04,12,07,25,8.00
2010,04,12,07,26,8.10
2010,04,12,07,27,8.20
2010,04,12,07,28,8.30
2010,04,12,07,29,8.40
2010,04,12,07,30,8.40
2010,04,12,07,31,8.50
2010,04,12,07,32,8.50
2010,04,12,07,33,8.60
2010,04,12,07,34,8.70
2010,04,12,07,35,8.80
2010,04,12,07,36,8.80
2010,04,12,07,37,8.90
2010,04,12,07,38,8.90
2010,04,12,07,39,8.90
2010,04,12,07,40,8.90
2010,04,12,07,41,8.90
2010,04,12,07,42,8.90
2010,04,12,07,43,8.90
2010,04,12,07,44,8.90
2010,04,12,07,45,8.90
2010,04,12,07,46,8.90
2010,04,12,07,47,9.00
2010,04,12,07,48,9.00
2010,04,12,07,49,9.10
2010,04,12,07,50,9.10
2010,04,12,07,51,9.10
2010,04,12,07,52,9.10
2010,04,12,07,53,9.10
2010,04,12,07,54,9.20
2010,04,12,07,55,9.20
2010,04,12,07,56,9.20
2010,04,12,07,57,9.20
2010,04,12,07,58,9.20
2010,04,12,07,59,9.20
2010,04,12,08,00,9.20
2010,04,12,08,01,9.30
2010,04,12,08,02,9.30
2010,04,12,08,03,9.30
2010,04,12,08,04,9.40
2010,04,12,08,05,9.40
2010,04,12,08,06,9.40
2010,04,12,08,07,9.50
2010,04,12,08,08,9.50
2010,04,12,08,09,9.50
2010,04,12,08,10,9.50
2010,04,12,08,11,9.60
2010,04,12,08,12,9.60
2010,04,12,08,13,9.60
2010,04,12,08,14,9.60
2010,04,12,08,15,9.60
2010,04,12,08,16,9.60
2010,04,12,08,17,9.50
2010,04,12,08,18,9.50
2010,04,12,08,19,9.50
2010,04,12,08,20,9.50
2010,04,12,08,21,9.60
2010,04,12,08,22,9.60
2010,04,12,08,23,9.60
2010,04,12,08,24,9.60
2010,04,12,08,25,9.60
2010,04,12,08,26,9.60
2010,04,12,08,27,9.60
2010,04,12,08,28,9.60
2010,04,12,08,29,9.60
2010,04,12,08,30,9.60
2010,04,12,08,31,9.60
2010,04,12,08,32,9.60
2010,04,12,08,33,9.60
2010,04,12,08,34,9.60
2010,04,12,08,35,9.60
2010,04,12,08,36,9.60
2010,04,12,08,37,9.60
2010,04,12,08,38,9.60
2010,04,12,08,39,9.60
2010,04,12,08,40,9.70
2010,04,12,08,41,9.70
2010,04,12,08,42,9.70
2010,04,12,08,43,9.70
2010,04,12,08,44,9.70
2010,04,12,08,45,9.70
2010,04,12,08,46,9.70
2010,04,12,08,47,9.70
2010,04,12,08,48,9.80
2010,04,12,08,49,9.80
2010,04,12,08,50,9.80
2010,04,12,08,51,9.80
2010,04,12,08,52,9.80
2010,04,12,08,53,9.90
2010,04,12,08,54,9.90
2010,04,12,08,55,9.90
2010,04,12,08,56,10.00
2010,04,12,08,57,10.00
2010,04,12,08,58,10.10
2010,04,12,08,59,10.10
2010,04,12,09,00,10.10
2010,04,12,09,01,10.10
2010,04,12,09,02,10.20
2010,04,12,09,03,10.20
2010,04,12,09,04,10.20
2010,04,12,09,05,10.20
2010,04,12,09,06,10.30
2010,04,12,09,07,10.30
2010,04,12,09,08,10.30
2010,04,12,09,09,10.30
2010,04,12,09,10,10.40
2010,04,12,09,11,10.40
2010,04,12,09,12,10.40
2010,04,12,09,13,10.40
2010,04,12,09,14,10.40
2010,04,12,09,15,10.40
2010,04,12,09,16,10.40
2010,04,12,09,17,10.40
2010,04,12,09,18,10.50
2010,04,12,09,19,10.50
2010,04,12,09,20,10.50
2010,04,12,09,21,10.50
2010,04,12,09,22,10.50
2010,04,12,09,23,10.40
2010,04,12,09,24,10.40
2010,04,12,09,25,10.50
2010,04,12,09,26,10.50
2010,04,12,09,27,10.50
2010,04,12,09,28,10.60
2010,04,12,09,29,10.60
2010,04,12,09,30,10.60
2010,04,12,09,31,10.60
2010,04,12,09,32,10.70
2010,04,12,09,33,10.60
2010,04,12,09,34,10.60
2010,04,12,09,35,10.60
2010,04,12,09,36,10.60
2010,04,12,09,37,10.60
2010,04,12,09,38,10.60
2010,04,12,09,39,10.70
2010,04,12,09,40,10.70
2010,04,12,09,41,10.80
2010,04,12,09,42,10.80
2010,04,12,09,43,10.80
2010,04,12,09,44,10.90
2010,04,12,09,45,10.90
2010,04,12,09,46,11.00
2010,04,12,09,47,11.00
2010,04,12,09,48,11.10
2010,04,12,09,49,11.10
2010,04,12,09,50,11.00
2010,04,12,09,51,11.10
2010,04,12,09,52,11.10
2010,04,12,09,53,11.10
2010,04,12,09,54,11.20
2010,04,12,09,55,11.20
2010,04,12,09,56,11.30
2010,04,12,09,57,11.40
2010,04,12,09,58,11.50
2010,04,12,09,59,11.60
2010,04,12,10,00,11.60
2010,04,12,10,01,11.60
2010,04,12,10,02,11.60
2010,04,12,10,03,11.60
2010,04,12,10,04,11.70
2010,04,12,10,05,11.70
2010,04,12,10,06,11.70
2010,04,12,10,07,11.70
2010,04,12,10,08,11.80
2010,04,12,10,09,11.80
2010,04,12,10,10,11.90
2010,04,12,10,11,11.90
2010,04,12,10,12,12.00
2010,04,12,10,13,12.00
2010,04,12,10,14,12.10
2010,04,12,10,15,12.10
2010,04,12,10,16,12.20
2010,04,12,10,17,12.20
2010,04,12,10,18,12.20
2010,04,12,10,19,12.30
2010,04,12,10,20,12.30
2010,04,12,10,21,12.20
2010,04,12,10,22,12.20
2010,04,12,10,23,12.20
2010,04,12,10,24,12.20
2010,04,12,10,25,12.20
2010,04,12,10,26,12.10
2010,04,12,10,27,12.20
2010,04,12,10,28,12.20
2010,04,12,10,29,12.20
2010,04,12,10,30,12.30
2010,04,12,10,31,12.30
2010,04,12,10,32,12.30
2010,04,12,10,33,12.40
2010,04,12,10,34,12.40
2010,04,12,10,35,12.50
2010,04,12,10,36,12.50
2010,04,12,10,37,12.50
2010,04,12,10,38,12.50
2010,04,12,10,39,12.50
2010,04,12,10,40,12.50
2010,04,12,10,41,12.50
2010,04,12,10,42,12.40
2010,04,12,10,43,12.40
2010,04,12,10,44,12.40
2010,04,12,10,45,12.50
2010,04,12,10,46,12.50
2010,04,12,10,47,12.50
2010,04,12,10,48,12.50
2010,04,12,10,49,12.50
2010,04,12,10,50,12.60
2010,04,12,10,51,12.60
2010,04,12,10,52,12.60
2010,04,12,10,53,12.60
2010,04,12,10,54,12.70
2010,04,12,10,55,12.70
2010,04,12,10,56,12.70
2010,04,12,10,57,12.60
2010,04,12,10,58,12.50
2010,04,12,10,59,12.50
2010,04,12,11,00,12.40
2010,04,12,11,01,12.40
2010,04,12,11,02,12.30
2010,04,12,11,03,12.30
2010,04,12,11,04,12.20
2010,04,12,11,05,12.20
2010,04,12,11,06,12.30
2010,04,12,11,07,12.30
2010,04,12,11,08,12.40
2010,04,12,11,09,12.50
2010,04,12,11,10,12.50
2010,04,12,11,11,12.50
2010,04,12,11,12,12.50
2010,04,12,11,13,12.50
2010,04,12,11,14,12.60
2010,04,12,11,15,12.60
2010,04,12,11,16,12.60
2010,04,12,11,17,12.50
2010,04,12,11,18,12.50
2010,04,12,11,19,12.50
2010,04,12,11,20,12.50
2010,04,12,11,21,12.50
2010,04,12,11,22,12.50
2010,04,12,11,23,12.60
2010,04,12,11,24,12.60
2010,04,12,11,25,12.60
2010,04,12,11,26,12.50
2010,04,12,11,27,12.50
2010,04,12,11,28,12.50
2010,04,12,11,29,12.60
2010,04,12,11,30,12.60
2010,04,12,11,31,12.60
2010,04,12,11,32,12.70
2010,04,12,11,33,12.80
2010,04,12,11,34,12.90
2010,04,12,11,35,13.00
2010,04,12,11,36,13.10
2010,04,12,11,37,13.20
2010,04,12,11,38,13.20
2010,04,12,11,39,13.30
2010,04,12,11,40,13.40
2010,04,12,11,41,13.40
2010,04,12,11,42,13.40
2010,04,12,11,43,13.20
2010,04,12,11,44,13.20
2010,04,12,11,45,13.20
2010,04,12,11,46,13.20
2010,04,12,11,47,13.30
2010,04,12,11,48,13.30
2010,04,12,11,49,13.40
2010,04,12,11,50,13.40
2010,04,12,11,51,13.40
2010,04,12,11,52,13.30
2010,04,12,11,53,13.30
2010,04,12,11,54,13.30
2010,04,12,11,55,13.20
2010,04,12,11,56,13.30
2010,04,12,11,57,13.30
2010,04,12,11,58,13.30
2010,04,12,11,59,13.40
2010,04,12,12,00,13.50
2010,04,12,12,01,13.50
2010,04,12,12,02,13.50
2010,04,12,12,03,13.50
2010,04,12,12,04,13.50
2010,04,12,12,05,13.40
2010,04,12,12,06,13.40
2010,04,12,12,07,13.40
2010,04,12,12,08,13.40
2010,04,12,12,09,13.30
2010,04,12,12,10,13.40
2010,04,12,12,11,13.40
2010,04,12,12,12,13.40
2010,04,12,12,13,13.30
2010,04,12,12,14,13.20
2010,04,12,12,15,13.20
2010,04,12,12,16,13.20
2010,04,12,12,17,13.20
2010,04,12,12,18,13.10
2010,04,12,12,19,13.10
2010,04,12,12,20,13.20
2010,04,12,12,21,13.20
2010,04,12,12,22,13.20
2010,04,12,12,23,13.20
2010,04,12,12,24,13.20
2010,04,12,12,25,13.30
2010,04,12,12,26,13.30
2010,04,12,12,27,13.30
2010,04,12,12,28,13.20
2010,04,12,12,29,13.30
2010,04,12,12,30,13.20
2010,04,12,12,31,13.20
2010,04,12,12,32,13.10
2010,04,12,12,33,13.00
2010,04,12,12,34,12.90
2010,04,12,12,35,12.90
2010,04,12,12,36,12.90
2010,04,12,12,37,12.90
2010,04,12,12,38,12.90
2010,04,12,12,39,12.80
2010,04,12,12,40,12.80
2010,04,12,12,41,12.70
2010,04,12,12,42,12.70
2010,04,12,12,43,12.70
2010,04,12,12,44,12.70
2010,04,12,12,45,12.70
2010,04,12,12,46,12.70
2010,04,12,12,47,12.70
2010,04,12,12,48,12.70
2010,04,12,12,49,12.70
2010,04,12,12,50,12.70
2010,04,12,12,51,12.60
2010,04,12,12,52,12.60
2010,04,12,12,53,12.70
2010,04,12,12,54,12.70
2010,04,12,12,55,12.70
2010,04,12,12,56,12.70
2010,04,12,12,57,12.70
2010,04,12,12,58,12.70
2010,04,12,12,59,12.70
2010,04,12,13,00,12.70
2010,04,12,13,01,12.80
2010,04,12,13,02,12.80
2010,04,12,13,03,12.90
2010,04,12,13,04,13.00
2010,04,12,13,05,13.10
2010,04,12,13,06,13.10
2010,04,12,13,07,13.20
2010,04,12,13,08,13.20
2010,04,12,13,09,13.30
2010,04,12,13,10,13.30
2010,04,12,13,11,13.40
2010,04,12,13,12,13.40
2010,04,12,13,13,13.50
2010,04,12,13,14,13.50
2010,04,12,13,15,13.40
2010,04,12,13,16,13.30
2010,04,12,13,17,13.30
2010,04,12,13,18,13.30
2010,04,12,13,19,13.30
2010,04,12,13,20,13.30
2010,04,12,13,21,13.30
2010,04,12,13,22,13.40
2010,04,12,13,23,13.40
2010,04,12,13,24,13.40
2010,04,12,13,25,13.50
2010,04,12,13,26,13.50
2010,04,12,13,27,13.50
2010,04,12,13,28,13.50
2010,04,12,13,29,13.50
2010,04,12,13,30,13.50
2010,04,12,13,31,13.50
2010,04,12,13,32,13.60
2010,04,12,13,33,13.60
2010,04,12,13,34,13.70
2010,04,12,13,35,13.80
2010,04,12,13,36,13.90
2010,04,12,13,37,14.10
2010,04,12,13,38,14.20
2010,04,12,13,39,14.30
2010,04,12,13,40,14.40
2010,04,12,13,41,14.50
2010,04,12,13,42,14.50
2010,04,12,13,43,14.50
2010,04,12,13,44,14.60
2010,04,12,13,45,14.50
2010,04,12,13,46,14.40
2010,04,12,13,47,14.40
2010,04,12,13,48,14.40
2010,04,12,13,49,14.50
2010,04,12,13,50,14.60
2010,04,12,13,51,14.60
2010,04,12,13,52,14.60
2010,04,12,13,53,14.70
2010,04,12,13,54,14.60
2010,04,12,13,55,14.60
2010,04,12,13,56,14.70
2010,04,12,13,57,14.70
2010,04,12,13,58,14.80
2010,04,12,13,59,14.80
2010,04,12,14,00,14.90
2010,04,12,14,01,15.00
2010,04,12,14,02,15.00
2010,04,12,14,03,15.00
2010,04,12,14,04,15.00
2010,04,12,14,05,14.90
2010,04,12,14,06,14.70
2010,04,12,14,07,14.50
2010,04,12,14,08,14.30
2010,04,12,14,09,14.30
2010,04,12,14,10,14.30
2010,04,12,14,11,14.30
2010,04,12,14,12,14.30
2010,04,12,14,13,14.40
2010,04,12,14,14,14.40
2010,04,12,14,15,14.40
2010,04,12,14,16,14.40
2010,04,12,14,17,14.30
2010,04,12,14,18,14.30
2010,04,12,14,19,14.30
2010,04,12,14,20,14.30
2010,04,12,14,21,14.30
2010,04,12,14,22,14.20
2010,04,12,14,23,14.20
2010,04,12,14,24,14.10
2010,04,12,14,25,14.00
2010,04,12,14,26,14.00
2010,04,12,14,27,13.90
2010,04,12,14,28,13.90
2010,04,12,14,29,13.80
2010,04,12,14,30,13.80
2010,04,12,14,31,13.70
2010,04,12,14,32,13.70
2010,04,12,14,33,13.70
2010,04,12,14,34,13.70
2010,04,12,14,35,13.70
2010,04,12,14,36,13.70
2010,04,12,14,37,13.70
2010,04,12,14,38,13.70
2010,04,12,14,39,13.60
2010,04,12,14,40,13.60
2010,04,12,14,41,13.50
2010,04,12,14,42,13.50
2010,04,12,14,43,13.40
2010,04,12,14,44,13.40
2010,04,12,14,45,13.40
2010,04,12,14,46,13.40
2010,04,12,14,47,13.40
2010,04,12,14,48,13.40
2010,04,12,14,49,13.30
2010,04,12,14,50,13.30
2010,04,12,14,51,13.20
2010,04,12,14,52,13.20
2010,04,12,14,53,13.10
2010,04,12,14,54,13.10
2010,04,12,14,55,13.00
2010,04,12,14,56,13.00
2010,04,12,14,57,12.90
2010,04,12,14,58,12.90
2010,04,12,14,59,12.90
2010,04,12,15,00,12.90
2010,04,12,15,01,12.90
2010,04,12,15,02,12.90
2010,04,12,15,03,12.90
2010,04,12,15,04,13.00
2010,04,12,15,05,13.00
2010,04,12,15,06,13.10
2010,04,12,15,07,13.10
2010,04,12,15,08,13.10
2010,04,12,15,09,13.10
2010,04,12,15,10,13.10
2010,04,12,15,11,13.20
2010,04,12,15,12,13.20
2010,04,12,15,13,13.20
2010,04,12,15,14,13.20
2010,04,12,15,15,13.30
2010,04,12,15,16,13.30
2010,04,12,15,17,13.30
2010,04,12,15,18,13.30
2010,04,12,15,19,13.30
2010,04,12,15,20,13.40
2010,04,12,15,21,13.40
2010,04,12,15,22,13.40
2010,04,12,15,23,13.40
2010,04,12,15,24,13.40
2010,04,12,15,25,13.40
2010,04,12,15,26,13.40
2010,04,12,15,27,13.50
2010,04,12,15,28,13.50
2010,04,12,15,29,13.60
2010,04,12,15,30,13.70
2010,04,12,15,31,13.80
2010,04,12,15,32,13.80
2010,04,12,15,33,13.90
2010,04,12,15,34,14.00
2010,04,12,15,35,14.10
2010,04,12,15,36,14.10
2010,04,12,15,37,14.20
2010,04,12,15,38,14.30
2010,04,12,15,39,14.40
2010,04,12,15,40,14.50
2010,04,12,15,41,14.60
2010,04,12,15,42,14.70
2010,04,12,15,43,14.80
2010,04,12,15,44,15.00
2010,04,12,15,45,15.00
2010,04,12,15,46,15.00
2010,04,12,15,47,15.20
2010,04,12,15,48,15.30
2010,04,12,15,49,15.40
2010,04,12,15,50,15.40
2010,04,12,15,51,15.50
2010,04,12,15,52,15.60
2010,04,12,15,53,15.60
2010,04,12,15,54,15.60
2010,04,12,15,55,15.60
2010,04,12,15,56,15.60
2010,04,12,15,57,15.60
2010,04,12,15,58,15.50
2010,04,12,15,59,15.40
2010,04,12,16,00,15.40
2010,04,12,16,01,15.30
2010,04,12,16,02,15.30
2010,04,12,16,03,15.30
2010,04,12,16,04,15.20
2010,04,12,16,05,15.10
2010,04,12,16,06,15.00
2010,04,12,16,07,15.00
2010,04,12,16,08,15.10
2010,04,12,16,09,15.20
2010,04,12,16,10,15.20
2010,04,12,16,11,15.30
2010,04,12,16,12,15.30
2010,04,12,16,13,15.30
2010,04,12,16,14,15.40
2010,04,12,16,15,15.30
2010,04,12,16,16,15.30
2010,04,12,16,17,15.30
2010,04,12,16,18,15.30
2010,04,12,16,19,15.40
2010,04,12,16,20,15.40
2010,04,12,16,21,15.40
2010,04,12,16,22,15.40
2010,04,12,16,23,15.40
2010,04,12,16,24,15.30
2010,04,12,16,25,15.30
2010,04,12,16,26,15.30
2010,04,12,16,27,15.20
2010,04,12,16,28,15.20
2010,04,12,16,29,15.20
2010,04,12,16,30,15.20
2010,04,12,16,31,15.20
2010,04,12,16,32,15.30
2010,04,12,16,33,15.40
2010,04,12,16,34,15.50
2010,04,12,16,35,15.60
2010,04,12,16,36,15.70
2010,04,12,16,37,15.70
2010,04,12,16,38,15.80
2010,04,12,16,39,15.80
2010,04,12,16,40,15.80
2010,04,12,16,41,15.80
2010,04,12,16,42,15.80
2010,04,12,16,43,15.90
2010,04,12,16,44,16.00
2010,04,12,16,45,16.00
2010,04,12,16,46,16.00
2010,04,12,16,47,16.00
2010,04,12,16,48,16.00
2010,04,12,16,49,16.00
2010,04,12,16,50,16.00
2010,04,12,16,51,16.10
2010,04,12,16,52,16.10
2010,04,12,16,53,16.10
2010,04,12,16,54,16.10
2010,04,12,16,55,16.10
2010,04,12,16,56,16.10
2010,04,12,16,57,16.10
2010,04,12,16,58,16.10
2010,04,12,16,59,16.10
2010,04,12,17,00,16.10
2010,04,12,17,01,16.10
2010,04,12,17,02,16.00
2010,04,12,17,03,15.90
2010,04,12,17,04,15.80
2010,04,12,17,05,15.70
2010,04,12,17,06,15.60
2010,04,12,17,07,15.60
2010,04,12,17,08,15.50
2010,04,12,17,09,15.50
2010,04,12,17,10,15.40
2010,04,12,17,11,15.30
2010,04,12,17,12,15.20
2010,04,12,17,13,15.20
2010,04,12,17,14,15.10
2010,04,12,17,15,15.00
2010,04,12,17,16,15.00
2010,04,12,17,17,15.00
2010,04,12,17,18,15.00
2010,04,12,17,19,14.90
2010,04,12,17,20,14.80
2010,04,12,17,21,14.80
2010,04,12,17,22,14.80
2010,04,12,17,23,14.80
2010,04,12,17,24,14.80
2010,04,12,17,25,14.80
2010,04,12,17,26,14.80
2010,04,12,17,27,14.90
2010,04,12,17,28,14.90
2010,04,12,17,29,15.00
2010,04,12,17,30,15.00
2010,04,12,17,31,15.00
2010,04,12,17,32,15.00
2010,04,12,17,33,15.00
2010,04,12,17,34,15.00
2010,04,12,17,35,15.00
2010,04,12,17,36,15.10
2010,04,12,17,37,15.10
2010,04,12,17,38,15.10
2010,04,12,17,39,15.10
2010,04,12,17,40,15.10
2010,04,12,17,41,15.20
2010,04,12,17,42,15.20